DELTA 1 DEB

Satellite information

Favourite Embed

Satellite Type and Status

DEBRISIN ORBIT

Key statistics

Satellite DELTA 1 DEB at a glance.

Uptime

18403

Days in orbit

Revolutions

≈ 13.6

Per day

Orbit

SSO

Sun Synchronous Orbit

Inclination

99.8

Latest

Satellite identification and parameters

Extended collection of information and parameters for DELTA 1 DEB.

Object identification

Identified? True

Debris? True

Object name: DELTA 1 DEB

International designator: 1975-052HM

Object number (NORAD): 21567

Object ID (CCSDS): 21567

Country: UNITED STATES OF AMERICA (US)

Current information (Y/N): Y

RCS size: SMALL

Orbital parameters

Period: 105.71 minutes

Inclination: 99.8355 deg

SMA: 7405.761 km

Apoapsis: 1208.768 km

Periapsis: 846.485 km

RAAN: 102.8763 deg

Eccentricy: 0.02445959

Argument of periapsis: 95.4406 deg

Mean anomaly: 322.2121 deg

Mean motion: 13.62222919 rev/day

Mean motion (dot): 0.00001129 rev/day2

B* drag term: 0.0012408007 1/REarth

Two-line elements (TLE)

Creation date: Oct. 30, 2025, 3:32 a.m.

Reference frame: TEME

Reference center: EARTH

Epoch: Oct. 29, 2025, 10:07 a.m. UTC

TLE line 0: 0 DELTA 1 DEB

TLE line 1: 1 21567U 75052HM 25302.42178572 .00001129 00000-0 12408-2 0 9998

TLE line 2: 2 21567 99.8355 102.8763 0244596 95.4406 322.2121 13.62222919704693

Live tracking on map

Real-time ground track for satellite DELTA 1 DEB.

In-orbit conjunctions

A list of the most updated potential collisions computed for object DELTA 1 DEB.

Target Orbit TCA Probability of collision Miss distance Type
SL-8 R/B LEO 2025-01-04 05:59:26 0.0003432491 279.0 (m) ROCKET BODY
THORAD AGENA D DEB SSO 2024-10-01 21:13:41 0.0002095462 110.0 (m) DEBRIS

Associated space launch

Experimental meteorological satellite

DELTA 1 DEB was lifted into orbit during the mission ‘Delta 2910 | Nimbus 6’, on board a Delta 2910 space rocket.

The launch took place on June 12, 1975, 8:12 a.m. from Space Launch Complex 2W.

For more information about the launch, click the button.

Launch to space Delta 2910 | Nimbus 6
Delta 2910 | Nimbus 6

Agency: N/A

Status: Launch Successful

Launch date: June 12, 1975, 8:12 a.m. UTC

Rocket: Delta 2910

Launch pad: Space Launch Complex 2W

Location: Vandenberg SFB, CA, USA

...

Latest news about this satellite

There are no fresh news available about this satellite. Check back as we update our databases every day.


Newsletter sign-up

Weekly statistics, charts and insights to help you stay on top of the space industry.